Find OneWeb SL0546

NORAD ID: 56048 Int'l Des: 2023-043 Owner: ONEWEBN Country: UK Constellation: oneweb operational
LEOCIRCULARPOLARONEWEB_TYPE

リアルタイム位置

3D地球を読み込み中...

OneWeb SL0546について

説明を読み込み中...

次回通過

Passes for default location (London). Set your location on the main map for personalized predictions.

高度履歴

Loading altitude history...

軌道要素

1 56048U 23043C 26124.78134039 -.00000053 00000-0 -17235-3 0 9996
2 56048 87.9096 237.3922 0001856 122.9454 237.1856 13.16594194153250
Epoch: May 4, 2026 • Age: 10 hours

現在のステータス

高度 1227.5 km
速度 7.24 km/s
衛星直下点 -83.86°S, 135.81°E
打ち上げ日 Mar 26, 2023
運用期間 3.1 years
タイプ internet

技術仕様

分類 Payload
質量 148.00 kg
乾燥質量 140.00 kg
総質量 148.00 kg
長さ 1.30 m
直径 1.00 m
スパン 5.00 m
形状 Trapezoid+2 pan
製造者 ONEWUS
バスタイプ ARROW
フェーズステータス In Orbit
所有者/国 ONEWEBN/UK

Most Searched